ECMWFFLT1_850_thetae_132.txt.gz
Theta_e
323 322 321 321 321 321 321 320 321 321 321 321 321 321 322 322 322 321 321 321 321 321 321 321 321 321 321 321 322 322 323 323 323 323 323 323 323 323 323 323 323 323 324 324 324 324 324 324 325 325 325 325 325 325 325 325 325 325 324 324 324 324
322 319 318 319 319 320 319 319 320 321 321 319 319 320 321 321 321 321 321 321 321 320 320 320 320 320 320 320 321 322 322 322 323 323 323 323 324 324 323 323 323 323 324 324 325 325 325 325 325 325 326 325 325 325 325 324 324 324 324 323 323 324
320 317 318 319 318 318 318 319 320 320 319 318 318 320 321 321 321 320 320 320 320 320 320 319 319 318 318 319 320 321 321 322 323 323 323 324 324 323 323 323 323 323 324 325 325 325 325 325 325 325 326 326 326 326 325 325 325 324 323 323 323 323
319 317 317 318 318 318 318 318 319 318 318 318 318 319 319 320 319 319 319 318 318 319 318 318 318 317 317 317 318 319 320 321 321 322 323 323 322 323 323 323 323 324 324 324 325 325 325 325 325 326 326 326 326 326 325 325 325 324 324 324 323 322
319 318 317 317 318 318 318 318 318 318 318 318 317 318 317 317 316 316 316 316 317 317 317 317 316 316 316 316 316 317 318 319 320 321 322 322 322 323 323 323 323 324 324 325 325 324 325 325 325 325 326 326 325 325 325 325 324 324 324 324 324 324
318 317 317 317 318 318 318 318 318 318 318 317 317 317 317 316 316 315 314 314 315 315 316 316 316 315 315 315 316 317 317 318 319 321 321 322 322 323 323 323 323 323 324 324 324 324 324 324 324 325 325 325 325 325 325 325 324 323 323 322 322 324
316 316 317 318 318 318 318 318 318 318 317 317 316 316 316 316 315 315 315 314 314 313 313 314 314 314 314 315 315 316 317 318 319 320 321 321 322 322 322 322 322 322 322 322 322 323 323 322 323 324 324 324 325 325 324 324 325 324 323 322 322 322
317 317 317 318 318 318 318 318 317 317 316 316 316 316 315 315 314 314 314 314 314 314 313 313 312 312 313 313 314 315 315 316 318 319 319 320 321 320 320 320 319 319 320 319 320 320 320 320 321 322 323 323 324 325 324 324 324 322 321 320 321 321
318 318 318 318 318 317 317 318 317 316 316 316 316 316 316 316 314 313 313 313 313 314 314 314 313 312 312 311 312 313 313 314 315 316 317 317 318 317 316 316 315 315 316 317 317 317 317 318 319 321 322 323 322 323 323 324 322 320 319 320 322 323
317 318 319 318 317 317 317 317 316 315 315 315 315 315 316 316 315 314 313 312 312 313 313 313 313 313 312 311 310 311 311 311 312 313 314 314 315 314 313 313 312 313 314 314 314 314 315 316 318 320 321 321 322 322 321 321 320 319 319 320 321 321
317 318 318 318 318 317 316 316 315 314 315 314 314 315 316 317 317 315 314 313 312 312 312 312 312 312 312 311 310 310 310 310 310 311 311 312 312 312 312 311 311 311 311 311 311 312 313 316 317 319 320 321 321 320 317 317 319 319 320 320 320 321
317 318 318 318 318 317 316 316 314 314 314 314 314 315 316 316 317 317 315 313 313 312 312 312 312 311 311 310 310 310 310 309 310 310 310 311 311 311 311 310 310 310 309 309 310 310 312 314 316 319 320 319 319 318 316 317 319 319 320 321 322 322
318 318 318 318 318 317 317 316 315 314 314 314 314 315 316 316 317 317 315 314 313 312 311 311 311 311 311 311 311 310 310 310 310 311 311 311 311 310 310 310 309 309 309 309 309 309 311 314 315 317 317 315 317 320 321 320 319 318 319 321 322 321
318 319 319 319 318 317 317 316 316 315 315 315 315 315 316 315 315 317 316 314 313 312 311 311 311 311 311 311 311 311 311 310 310 311 311 311 310 310 310 310 310 310 309 309 309 309 311 312 313 313 312 311 314 319 321 321 321 319 320 322 321 319
319 319 319 319 318 317 317 316 316 316 316 316 315 315 316 316 315 316 314 313 312 312 311 311 310 311 311 311 311 311 311 311 311 311 311 311 311 310 310 310 310 310 310 310 310 310 310 310 309 309 309 310 313 316 316 318 320 320 321 323 321 318
319 319 319 318 318 317 318 318 318 317 316 316 316 317 317 316 316 315 313 312 312 312 312 311 310 310 310 310 310 311 311 311 311 311 311 311 311 310 310 310 310 310 310 310 310 310 310 310 309 309 308 309 314 317 317 316 317 319 321 322 321 320
319 319 319 318 318 318 318 319 319 318 318 317 318 318 317 317 316 314 312 311 311 311 311 311 311 311 310 310 310 310 310 310 310 310 310 310 310 310 310 310 310 310 310 310 310 310 310 310 310 310 309 309 312 317 319 316 314 316 320 322 322 321
319 319 319 319 318 318 318 318 318 318 318 318 317 317 317 317 316 314 312 311 311 311 311 311 311 311 311 311 311 310 310 310 310 310 310 310 310 310 310 310 310 310 310 310 310 310 310 310 310 310 310 309 310 313 316 315 313 314 319 322 322 321
319 318 318 318 318 318 318 318 317 317 317 317 317 317 317 316 316 314 312 311 312 311 311 311 311 311 312 312 312 312 311 311 310 310 310 310 310 310 310 310 310 310 310 311 311 310 311 310 310 310 309 309 309 308 310 312 311 312 316 320 321 320
318 318 317 317 317 317 317 317 317 317 317 317 317 316 316 316 316 314 312 311 312 312 312 312 312 312 313 314 314 314 314 313 312 310 310 310 310 310 310 310 310 310 310 311 310 311 311 310 310 310 309 308 308 307 308 309 309 311 315 319 319 317
317 317 316 316 317 316 316 316 316 316 316 316 316 316 316 316 316 315 313 312 311 312 313 313 313 313 313 314 314 315 315 314 313 311 310 310 309 309 310 310 310 310 310 311 311 310 311 311 310 310 308 308 307 307 308 309 310 312 316 318 317 316
316 316 316 315 316 315 316 316 316 316 316 316 316 316 316 316 316 315 315 314 313 312 312 314 314 313 313 313 314 315 315 314 313 312 310 310 309 309 310 309 310 310 310 310 311 311 311 311 310 309 308 308 309 308 308 309 311 313 315 317 317 317
314 314 314 314 313 314 314 314 314 315 315 314 315 315 315 315 315 315 315 315 314 313 312 313 314 314 313 313 314 315 314 314 313 312 310 310 309 309 309 309 310 310 310 310 311 311 311 310 309 308 308 309 310 309 309 310 311 312 313 315 316 317
310 310 310 310 310 311 312 313 313 313 313 313 314 314 314 314 315 315 315 315 315 315 314 313 313 313 313 313 314 314 314 313 313 312 311 310 310 309 309 309 310 310 310 310 311 311 311 310 309 308 307 308 309 310 310 311 311 311 312 314 316 317
307 307 308 308 308 309 310 311 311 312 312 313 313 313 313 312 313 314 315 315 315 315 314 313 313 312 313 313 314 314 313 313 312 312 312 311 310 309 309 309 310 310 310 310 311 311 310 310 309 308 308 308 309 310 311 311 312 312 312 314 316 317
307 307 307 307 308 308 309 309 310 310 311 312 313 313 312 311 312 313 314 315 315 314 314 314 313 312 312 313 314 314 313 312 312 312 311 311 310 310 309 309 309 310 310 310 311 311 310 310 309 309 308 309 310 311 311 312 312 312 313 313 314 314
307 307 307 306 307 308 308 309 310 310 311 312 312 312 312 311 311 311 313 314 314 314 314 314 313 312 311 312 314 314 313 312 312 311 311 311 310 310 309 309 309 310 310 311 311 310 310 309 308 308 308 308 309 310 310 310 311 311 312 311 312 313
306 306 307 306 307 308 309 309 310 310 311 312 311 312 312 311 310 311 312 313 314 314 313 313 313 312 311 312 313 314 313 312 312 312 311 311 310 310 310 309 309 309 310 310 310 310 309 308 307 307 307 308 308 309 309 309 310 310 310 311 312 314
306 306 306 306 307 307 308 309 309 310 310 311 311 311 311 311 311 310 311 312 313 314 313 313 313 312 311 312 313 313 312 312 312 312 311 311 310 310 310 309 309 310 310 310 310 309 308 307 307 307 307 308 308 309 309 310 310 310 310 311 312 314
304 304 304 305 306 307 308 308 308 309 309 311 311 310 310 310 311 310 310 311 312 313 313 313 313 312 311 312 313 313 313 312 313 313 312 312 311 310 310 310 309 310 310 310 310 308 307 307 307 308 309 309 309 309 309 309 310 310 310 310 311 312
302 302 303 304 305 306 307 307 308 308 309 311 311 310 309 311 311 310 310 311 310 311 312 313 313 313 312 312 312 312 312 312 312 312 312 312 310 309 309 309 309 309 310 309 309 308 307 307 308 309 309 310 310 309 309 308 308 309 309 310 310 311
302 303 303 304 305 306 307 307 308 309 310 310 311 310 310 311 311 310 311 311 309 310 311 313 313 313 312 311 311 311 312 312 312 312 312 311 310 309 309 309 309 309 309 308 308 307 307 307 309 309 309 309 309 309 309 309 308 309 309 310 310 310
302 303 304 305 306 306 307 307 308 309 310 310 311 310 309 310 311 310 311 311 310 310 310 312 313 312 312 311 310 311 311 312 312 311 311 311 309 308 308 308 308 308 308 308 307 307 307 307 308 308 308 308 309 309 309 308 308 308 309 309 309 309
303 303 304 305 306 306 307 307 308 309 310 310 311 310 309 310 310 311 311 311 312 311 309 310 311 311 311 310 310 310 311 311 311 311 311 310 309 308 307 308 308 308 308 307 307 306 306 306 307 308 308 307 307 308 308 307 307 307 307 307 307 306
303 303 304 304 305 306 306 307 308 309 310 310 310 310 309 309 310 311 311 311 312 311 310 309 310 310 310 310 310 311 311 311 312 311 310 309 308 307 307 307 307 307 307 307 306 305 305 305 306 306 306 306 306 306 306 306 305 305 305 305 305 304
303 303 302 303 304 304 305 307 308 309 310 311 310 310 310 309 309 310 310 310 310 310 310 310 310 310 310 310 310 310 311 311 311 311 310 308 307 307 306 306 306 306 306 305 305 304 304 304 304 305 305 305 305 305 305 305 304 303 303 304 304 303
302 302 302 302 303 303 304 306 309 310 310 310 310 309 309 309 309 308 309 309 309 309 310 310 310 310 310 310 310 310 310 311 310 309 308 308 307 307 307 306 306 306 305 305 304 304 304 304 303 303 304 305 305 305 305 304 303 303 303 304 304 303
302 303 303 302 303 303 304 307 309 310 310 310 309 309 309 309 308 307 307 308 308 308 309 309 310 309 309 309 310 310 310 309 308 307 307 307 307 306 306 306 306 306 305 304 303 303 303 303 303 303 303 304 305 305 305 304 304 304 304 304 304 303

ECMWFFLT1_850_thetae_138.txt.gz
Theta_e
317 317 318 318 318 318 319 319 320 320 320 320 320 320 320 320 320 320 321 321 320 320 321 320 320 320 320 321 321 320 320 320 320 320 320 321 321 321 321 321 322 322 323 323 324 324 324 325 326 326 326 327 326 326 326 325 325 325 325 324 323 323
318 318 318 319 319 319 319 319 319 319 318 318 318 319 319 319 319 320 321 321 320 320 320 320 320 320 321 321 321 321 321 321 321 321 320 320 321 321 321 321 322 322 323 323 324 324 325 325 326 326 327 327 327 327 326 326 325 325 325 324 324 323
318 318 319 319 318 318 318 319 319 318 316 317 317 317 318 318 318 319 320 320 320 320 319 319 319 321 321 321 321 321 321 321 321 321 321 320 321 321 320 321 321 322 322 323 323 324 325 325 326 326 327 327 327 327 326 326 326 326 325 325 324 324
318 319 319 318 318 317 316 317 318 318 317 317 317 317 318 318 318 319 319 319 319 318 318 318 319 320 320 320 321 320 320 320 320 320 320 320 320 320 320 320 320 320 321 322 323 324 324 325 326 326 327 327 327 327 327 326 326 326 325 325 325 324
317 318 319 318 318 317 316 316 316 317 317 317 317 317 317 317 318 318 318 318 318 318 318 318 318 318 318 318 317 317 317 317 317 317 317 318 318 318 318 318 318 319 319 321 322 322 324 325 325 326 327 327 327 327 327 326 326 326 325 325 324 324
317 317 317 317 317 317 317 316 316 317 317 317 317 317 317 317 317 317 317 317 317 316 316 316 316 315 315 314 314 314 314 314 314 314 314 315 315 316 316 316 316 317 317 318 320 320 322 323 324 325 326 327 327 327 326 326 325 325 325 325 324 324
317 317 317 318 318 318 317 317 317 317 317 317 318 317 317 317 317 317 316 316 316 315 314 314 314 314 314 314 314 313 313 312 312 312 312 312 313 313 314 314 314 315 315 316 317 318 319 321 323 324 326 326 326 326 326 326 325 325 325 324 324 323
317 317 317 318 319 318 317 316 317 317 317 317 317 317 317 316 316 316 315 315 315 314 314 314 315 315 316 316 316 315 314 313 312 311 311 311 311 311 312 312 312 313 313 314 315 316 318 320 321 323 324 325 326 326 326 325 325 325 324 324 323 322
318 318 318 318 319 319 318 317 317 317 317 317 316 316 316 315 316 316 315 315 315 314 314 314 315 315 315 316 317 316 316 315 313 312 311 310 310 310 310 311 311 311 312 313 314 315 317 319 321 322 323 324 325 325 325 325 325 324 323 322 322 322
318 318 318 319 319 319 319 318 317 317 318 318 318 317 316 315 315 315 315 315 314 314 313 313 314 314 314 316 317 317 317 317 315 314 312 311 310 310 310 310 310 310 311 311 312 314 316 318 320 321 322 323 324 324 324 324 324 323 322 321 322 322
318 318 319 319 319 320 319 318 317 316 316 318 319 319 318 316 315 315 315 314 314 313 312 312 312 312 314 316 317 318 318 317 317 315 313 311 311 310 310 310 309 309 310 310 311 312 314 316 319 320 321 322 323 324 324 323 323 322 321 321 322 323
318 318 318 318 317 317 316 316 316 315 315 317 318 319 319 318 317 317 317 316 316 315 314 313 311 312 313 315 317 318 318 317 317 316 314 312 311 310 310 310 309 309 309 309 310 310 311 313 315 317 319 321 322 323 323 322 322 321 321 320 321 321
318 317 317 315 314 314 314 316 317 317 317 318 318 318 319 319 319 318 318 318 318 317 317 317 315 314 315 316 317 318 318 318 317 316 315 313 311 310 310 310 310 309 309 309 309 309 310 310 311 314 317 320 322 323 323 322 320 320 320 322 320 317
317 316 315 314 313 314 316 317 318 317 317 317 317 317 318 318 318 318 318 318 318 317 317 317 317 317 316 316 317 317 318 318 317 317 315 314 312 310 309 310 310 310 309 309 308 308 309 308 310 311 314 318 320 321 321 321 320 318 318 320 320 317
316 315 314 314 314 315 316 316 316 316 316 316 316 316 316 317 317 317 317 317 317 317 317 316 316 316 316 316 316 317 317 317 317 317 315 313 312 311 310 310 310 310 310 310 309 309 309 308 309 309 311 315 317 318 319 318 319 319 318 319 322 321
315 314 314 314 315 315 316 315 315 314 315 315 314 314 315 315 316 316 316 316 316 316 316 316 315 315 316 316 316 316 316 317 317 317 315 313 312 310 310 310 309 309 310 310 310 310 309 309 309 309 309 311 313 315 316 317 318 319 320 320 321 319
314 314 314 314 315 315 315 314 314 313 312 312 311 311 312 313 313 314 315 316 316 315 315 314 314 314 314 315 316 316 316 316 316 316 315 313 311 310 310 310 310 309 309 310 310 310 310 310 310 310 309 309 309 311 313 315 317 318 318 318 317 316
312 312 312 313 313 313 313 313 312 311 309 309 309 309 309 310 311 311 312 314 314 314 314 313 313 313 313 314 315 315 316 316 316 316 315 313 311 310 310 310 310 310 310 309 310 309 310 310 310 310 310 309 309 309 310 312 314 314 314 313 314 316
308 308 309 309 309 310 310 310 309 308 307 307 308 308 309 309 310 310 311 312 312 313 313 313 313 313 313 313 314 314 315 315 316 316 315 313 312 310 310 310 310 310 310 310 310 310 309 310 310 309 310 310 309 309 309 309 310 312 313 313 313 314
305 305 305 306 306 307 307 307 307 306 306 306 307 308 309 309 309 310 310 311 311 311 312 313 313 313 313 313 313 313 314 315 315 316 315 314 312 311 310 310 310 310 310 310 310 311 310 310 310 309 309 310 309 309 309 309 309 310 313 315 317 317
304 303 303 303 304 305 305 305 305 305 304 305 305 306 307 308 308 309 309 310 310 311 311 312 312 313 313 313 313 313 313 314 314 316 315 315 313 312 311 310 310 310 310 311 311 311 311 311 311 310 309 309 309 309 309 309 309 309 311 314 316 317
303 302 302 302 302 303 303 302 302 302 302 302 303 304 305 307 307 308 308 309 309 310 311 311 312 312 313 313 313 313 313 313 314 315 316 316 315 313 312 311 311 311 310 310 311 311 311 312 311 311 310 309 309 309 309 309 309 309 309 310 311 312
300 300 301 301 302 303 302 301 300 300 300 301 301 302 303 305 305 306 307 308 308 309 310 310 311 312 312 312 312 313 313 313 313 313 315 315 316 315 314 313 312 312 311 311 310 311 311 312 312 312 311 310 309 309 309 309 309 309 309 309 310 310
298 298 299 301 302 303 302 301 299 299 300 301 301 301 302 303 304 305 305 306 307 307 308 309 310 311 312 312 312 312 312 312 313 313 313 314 315 316 315 315 314 313 313 312 311 311 311 311 312 312 311 311 310 309 309 309 309 309 309 309 310 310
297 297 298 299 300 301 300 299 299 299 300 301 301 301 301 302 302 303 304 304 305 305 306 307 309 310 311 312 312 312 312 312 312 312 312 313 313 314 314 315 315 314 314 314 313 312 312 311 311 312 312 311 310 309 309 309 309 309 309 309 309 309
297 297 297 297 298 298 298 298 298 299 300 300 301 301 301 301 301 302 302 302 303 303 304 305 306 308 310 311 312 312 312 312 312 312 313 313 312 312 313 314 314 314 314 315 314 314 313 312 311 311 312 311 310 310 309 309 309 309 309 309 309 308
296 297 297 297 297 297 298 298 298 298 299 300 301 301 301 302 302 302 302 302 302 302 302 303 304 306 308 309 311 312 312 312 312 312 312 313 312 312 312 312 313 314 314 314 315 315 315 313 312 311 311 311 311 310 309 309 309 309 308 308 308 308
296 296 297 297 297 297 297 297 297 297 298 300 300 300 301 301 302 302 302 302 302 302 302 302 303 304 306 308 310 312 313 313 312 312 312 312 313 312 312 311 312 313 313 314 314 314 314 314 313 311 311 311 311 310 310 309 308 308 308 308 308 308
296 296 297 298 297 297 297 297 297 297 298 299 300 300 301 301 302 302 303 303 303 303 303 302 302 303 305 307 310 311 312 313 312 311 311 312 312 312 312 311 311 312 313 313 313 313 314 313 312 311 311 311 311 311 310 309 308 307 307 307 307 307
296 296 297 298 298 297 297 297 298 298 299 300 300 300 301 302 302 303 303 303 303 304 303 303 302 302 304 306 309 311 311 312 312 312 311 311 311 312 312 311 311 311 312 312 312 312 312 311 311 311 311 310 311 311 310 310 309 308 307 307 307 307
295 296 297 298 298 297 297 297 298 299 299 300 300 300 301 302 302 303 303 303 304 304 304 303 303 303 303 305 308 310 311 311 311 312 312 311 311 311 312 311 311 311 311 311 311 310 310 310 311 311 310 309 310 310 309 309 309 308 307 306 306 308
294 295 296 297 297 297 297 297 298 299 299 300 300 300 301 302 302 302 303 303 303 304 304 304 303 303 304 305 308 309 310 310 311 311 311 311 310 310 311 311 311 310 309 309 309 309 309 310 310 309 308 308 308 308 307 307 308 307 307 307 307 307
294 294 295 296 296 297 297 297 298 299 299 299 299 300 301 301 302 302 302 303 304 304 304 304 304 304 304 306 308 309 309 310 311 311 311 311 309 309 310 311 311 310 309 309 309 308 309 309 308 307 307 307 307 307 306 306 306 305 305 306 306 307
294 295 295 296 296 297 297 297 298 298 299 299 299 300 300 301 302 302 302 303 304 304 305 305 304 304 305 306 307 308 309 309 310 311 311 311 310 308 308 309 310 310 309 309 309 308 308 308 307 306 307 307 306 306 305 305 305 304 304 304 305 306
294 295 295 295 296 296 296 296 297 298 298 298 299 299 300 301 301 302 302 303 304 304 304 305 305 304 305 306 307 308 308 308 309 310 310 310 310 309 308 308 309 310 309 309 309 308 308 307 306 306 306 306 306 306 305 304 304 304 303 304 306 307
294 294 294 294 295 295 295 296 296 297 296 297 298 299 300 300 301 301 302 303 303 304 304 305 305 305 305 306 307 307 308 308 308 308 309 309 310 310 309 308 309 309 308 308 308 308 307 307 306 305 306 306 306 305 304 304 304 303 302 304 306 307
293 293 293 294 294 294 294 294 295 295 295 296 297 298 299 300 300 301 302 303 303 304 304 305 305 305 305 306 306 307 307 307 307 308 308 308 309 309 309 308 308 308 307 306 306 307 307 306 306 305 305 305 305 305 304 303 302 302 302 303 305 306
293 293 293 294 294 294 293 293 293 294 294 296 297 298 299 300 300 301 302 303 303 303 304 304 305 305 305 306 306 306 307 307 307 307 308 308 308 308 309 309 308 307 306 306 306 306 306 306 306 305 305 304 304 304 303 302 302 303 303 303 304 305

ECMWFFLT1_850_thetae_141.txt.gz
Theta_e
318 318 318 318 318 318 317 317 318 318 319 319 319 320 320 320 320 319 319 319 319 319 319 319 320 320 321 320 320 320 319 319 318 319 320 319 319 319 320 320 320 320 321 321 322 322 323 324 324 325 326 326 326 326 326 326 326 326 326 325 325 325
317 317 317 317 317 317 317 317 316 316 318 319 319 319 318 319 319 319 319 319 318 319 319 319 319 320 321 320 320 320 320 319 318 319 319 319 319 319 320 320 320 320 321 320 321 322 322 323 324 324 325 326 326 326 326 326 326 326 326 326 326 325
317 317 316 317 317 317 316 317 316 316 316 318 319 317 316 317 317 317 318 318 318 318 318 319 319 320 320 319 318 319 319 320 319 319 319 319 319 319 319 320 320 320 320 321 321 321 322 323 323 323 324 325 326 326 325 326 326 326 326 326 326 326
318 317 317 317 318 317 316 316 316 316 316 317 317 317 317 317 317 317 318 318 318 319 318 319 319 319 319 318 318 319 320 320 320 319 319 319 319 319 319 319 320 320 320 321 321 321 321 321 322 323 324 325 325 325 325 325 326 326 326 326 326 326
317 317 317 317 318 318 317 316 316 316 316 316 316 316 317 317 317 317 317 317 318 318 319 319 319 318 318 317 318 318 318 317 316 316 316 316 316 316 317 317 317 318 319 319 320 319 320 320 321 322 323 324 325 325 325 325 325 326 326 326 326 326
317 317 318 318 318 318 318 318 317 317 317 316 316 316 316 316 317 317 316 316 317 317 317 317 317 316 316 316 315 315 315 315 315 314 314 314 313 313 313 313 314 314 314 316 316 316 317 319 319 320 322 323 324 324 324 325 325 325 326 326 326 327
318 318 318 318 318 318 319 318 318 318 318 317 317 316 316 316 315 315 316 316 315 316 316 315 314 314 314 315 315 316 316 316 316 317 316 316 315 314 313 312 311 311 311 312 313 313 314 315 316 317 318 319 321 322 323 324 324 325 325 326 326 327
318 318 318 318 318 318 318 318 317 317 317 318 317 317 317 317 316 315 314 314 314 314 314 314 313 313 313 315 315 316 316 317 317 317 317 318 317 316 315 314 312 311 310 310 310 310 311 311 312 313 314 315 317 319 321 323 324 324 325 326 326 327
318 318 318 318 318 317 317 317 316 315 315 316 317 316 316 317 318 316 315 314 314 314 314 313 313 312 312 313 314 314 316 316 316 316 317 318 318 318 317 316 314 312 311 310 310 310 310 309 310 311 312 313 314 316 319 321 323 324 325 325 326 326
318 318 318 318 318 317 316 316 314 314 315 316 316 316 316 316 317 318 317 316 315 314 314 314 314 313 312 312 312 313 314 315 315 314 315 316 318 318 318 317 316 314 312 311 310 310 310 309 309 309 310 311 312 313 317 320 322 323 324 325 325 325
319 318 317 317 318 317 316 315 314 315 316 316 316 317 316 316 316 317 318 318 318 317 316 315 314 314 313 312 312 312 312 313 314 314 314 315 317 318 318 317 317 316 314 312 311 310 310 310 310 309 309 309 310 312 314 317 321 323 324 324 324 324
319 318 318 317 317 317 315 315 314 315 317 317 316 317 317 316 316 317 318 318 319 318 318 317 316 316 315 314 314 312 312 312 312 313 314 315 317 318 318 318 317 316 315 313 311 310 310 310 310 310 309 309 309 310 312 315 318 321 322 323 323 323
318 317 318 318 317 316 315 314 315 316 317 317 317 317 317 317 316 316 317 317 317 318 318 318 318 317 316 316 316 316 315 315 315 315 316 317 317 318 318 318 318 317 316 314 312 311 310 310 310 310 310 309 308 309 311 314 316 318 320 321 321 322
317 317 318 318 316 315 315 314 315 316 317 316 316 316 316 316 316 316 316 316 316 317 317 317 317 317 317 317 317 317 316 317 317 317 317 317 317 317 318 318 318 318 317 315 313 311 310 310 310 310 310 309 308 308 309 312 315 317 319 320 321 321
317 317 318 317 315 314 314 315 316 316 316 316 315 315 315 316 316 316 316 316 316 316 316 316 316 316 316 316 316 316 316 316 317 317 317 317 317 317 317 318 317 317 317 315 313 311 310 310 309 309 310 310 309 308 308 309 313 316 318 319 320 321
317 317 317 315 313 312 312 313 314 314 315 315 314 314 314 313 313 314 314 315 315 315 315 315 315 315 315 315 315 315 315 315 315 316 316 317 317 317 317 317 317 317 316 315 313 311 310 310 309 309 310 309 309 308 308 308 310 313 316 318 319 320
317 316 315 313 311 310 310 310 310 311 312 312 312 311 311 311 310 310 311 311 312 313 313 314 314 314 314 314 313 313 314 314 314 314 315 315 316 316 316 316 316 316 316 315 313 311 310 310 310 309 309 309 309 309 308 308 309 311 313 315 318 319
315 313 311 309 308 308 307 307 307 307 308 308 309 309 309 309 309 309 310 310 310 311 311 311 312 312 312 313 313 313 313 313 313 313 314 314 314 315 315 316 316 316 316 315 313 312 310 310 310 309 309 309 309 309 309 309 308 309 310 312 314 315
309 308 306 305 306 306 306 305 305 304 304 305 305 306 307 308 308 309 309 310 310 310 310 310 311 311 311 312 312 312 313 313 313 313 313 314 314 314 314 315 315 315 316 316 315 313 311 310 310 310 310 310 310 309 309 309 309 309 309 308 310 311
305 304 304 303 303 304 304 304 304 303 302 302 302 303 304 305 307 308 308 308 309 309 309 309 309 310 310 311 311 311 312 312 313 313 313 313 313 314 314 314 314 314 315 315 315 314 313 311 310 310 310 311 310 310 310 309 309 309 309 309 309 309
303 303 303 302 302 302 303 303 303 303 302 301 300 301 302 303 304 305 306 307 307 307 307 308 308 308 309 310 310 311 311 312 312 312 313 313 313 313 313 313 314 314 314 314 315 315 315 313 312 311 310 311 311 310 310 310 309 309 309 309 309 308
303 302 302 302 302 302 302 302 302 302 301 300 300 300 301 301 302 303 303 304 305 305 306 306 306 307 307 308 308 309 310 310 311 312 312 313 313 313 313 313 312 313 313 313 313 314 315 315 314 313 312 311 311 311 311 310 310 311 310 309 309 309
301 301 301 301 300 300 300 300 301 301 301 299 299 299 300 301 301 301 302 302 302 303 303 303 304 304 305 305 306 307 308 309 310 311 312 312 313 313 313 313 312 312 312 312 312 313 313 314 314 314 314 313 312 311 311 311 311 311 311 310 310 309
299 299 299 298 298 298 298 299 299 299 299 299 298 298 299 299 300 300 301 301 301 301 302 302 302 302 302 303 303 304 305 306 308 309 311 312 312 312 313 313 312 312 311 311 311 312 312 313 313 313 313 314 314 313 312 312 311 311 311 311 310 310
298 298 298 298 298 298 298 298 298 298 298 298 298 298 298 298 299 299 300 300 301 301 302 302 302 302 302 302 302 302 302 303 305 307 309 310 311 312 312 312 312 312 312 312 311 311 312 312 313 313 313 312 313 314 313 313 312 311 310 311 311 311
297 297 297 297 297 297 297 297 297 298 298 298 298 298 298 298 298 299 299 300 300 301 301 302 302 302 303 302 303 303 302 302 303 304 306 308 310 311 312 312 312 312 312 312 312 311 311 312 312 313 313 312 312 313 314 314 313 312 311 310 311 311
297 298 298 298 298 298 298 297 297 297 297 298 298 298 298 298 298 299 299 299 300 300 301 301 301 302 302 303 303 303 303 303 303 303 304 306 308 309 310 311 311 312 312 312 312 311 311 311 312 313 313 313 312 312 313 313 313 313 311 310 310 311
296 296 297 298 299 299 298 298 298 297 297 298 298 298 298 298 298 299 299 299 299 300 300 300 301 301 302 302 303 303 303 303 303 302 302 304 306 308 309 310 311 311 311 312 312 312 311 311 312 312 313 312 312 312 312 313 313 312 310 309 309 309
295 295 296 296 297 297 297 297 297 297 297 298 298 298 298 298 298 299 299 299 299 299 299 300 300 301 301 301 302 302 303 303 303 303 302 303 305 307 308 309 310 310 310 311 311 311 311 311 312 312 313 312 311 311 312 312 312 311 310 309 309 309
295 295 295 295 295 295 296 295 295 296 296 297 298 298 298 298 299 299 299 299 299 299 299 300 300 300 300 301 301 302 302 303 304 304 303 303 304 306 307 308 309 309 309 310 310 311 311 311 311 312 312 312 310 310 310 311 311 310 309 309 309 308
295 295 295 296 295 295 295 295 294 295 296 296 297 297 297 298 298 298 298 299 299 299 300 300 300 300 300 301 301 301 302 303 303 304 304 304 304 305 307 308 309 309 309 309 309 309 310 311 311 310 311 311 310 308 309 309 309 309 308 307 307 307
295 295 296 296 295 295 295 295 294 295 295 295 296 296 296 296 297 297 298 298 298 299 299 300 300 300 300 301 301 301 301 302 303 303 304 304 304 305 306 307 308 309 308 308 309 309 309 310 310 309 309 311 310 309 308 308 307 308 308 307 306 306
294 294 295 295 294 294 294 294 294 294 294 294 294 294 294 295 295 296 296 297 297 298 299 299 300 300 300 301 301 301 302 302 302 303 303 304 304 304 305 306 307 308 308 309 309 309 309 309 309 308 308 310 310 310 309 307 306 305 306 306 305 305
293 293 293 293 293 293 293 293 293 293 293 293 293 293 293 293 293 294 295 295 296 297 298 299 299 300 300 301 301 301 302 302 302 302 302 303 304 304 304 304 305 307 308 308 309 309 309 309 308 308 307 308 309 309 309 308 305 303 303 304 304 304
293 293 293 293 293 293 292 292 293 293 293 293 293 293 293 293 293 293 293 294 294 295 297 298 298 299 300 300 301 301 302 302 303 303 303 303 303 304 304 304 304 306 307 308 308 309 309 309 308 307 306 307 307 308 308 308 306 304 301 301 303 303
292 293 293 293 293 293 293 293 293 293 293 293 293 293 293 293 294 294 294 293 293 294 295 296 297 298 299 300 301 301 302 302 303 303 304 304 304 304 304 304 304 305 306 307 308 308 309 309 308 307 306 306 306 306 306 306 307 306 302 299 301 303
292 292 292 292 292 293 293 293 293 293 293 293 293 293 293 293 294 294 294 294 294 293 294 295 296 297 298 299 300 301 301 302 302 303 303 304 304 304 305 304 304 304 305 306 307 308 308 308 308 308 306 305 305 305 304 304 306 307 304 300 299 300
291 291 291 292 292 292 292 293 293 292 293 293 293 293 293 293 293 293 294 294 294 294 293 294 295 296 297 298 299 300 301 301 302 302 303 303 304 304 305 305 305 305 305 306 307 307 308 308 308 308 306 305 304 303 302 303 305 306 306 303 300 299

ECMWFFLT1_850_thetae_144.txt.gz
Theta_e
316 316 316 316 316 317 317 317 317 317 317 316 316 317 318 318 318 318 319 319 319 318 318 318 318 319 319 319 319 319 319 319 319 319 319 319 319 319 320 321 321 321 322 323 323 323 323 324 324 324 324 324 325 325 325 325 325 325 325 325 325 325
316 316 317 317 316 316 316 316 316 316 316 315 315 316 317 318 317 316 317 318 318 318 318 318 318 318 318 318 318 319 319 320 319 319 319 319 319 319 319 319 319 320 320 321 322 322 322 322 323 323 323 324 324 324 324 324 324 325 325 325 325 325
317 316 317 318 317 317 317 317 317 316 316 316 315 316 316 317 316 315 316 316 316 317 317 317 318 318 317 318 318 318 319 319 318 318 318 319 319 318 318 318 319 319 320 320 320 321 321 321 321 321 322 323 324 324 324 324 324 324 324 324 324 324
317 317 317 317 318 318 318 318 318 317 317 317 316 316 316 316 316 316 316 316 316 317 317 318 318 318 317 317 317 318 319 318 318 318 318 318 317 317 316 316 316 316 317 317 318 318 318 319 319 320 321 322 323 323 323 323 323 323 323 324 324 323
316 317 317 318 318 318 318 318 318 318 318 317 317 317 316 316 316 316 316 316 316 316 317 317 318 318 318 317 317 318 318 317 316 316 316 315 314 314 314 314 313 313 313 313 313 313 314 315 315 317 318 319 320 321 322 322 322 322 323 323 323 323
315 316 317 318 318 318 318 318 317 317 317 317 317 317 317 317 316 316 315 316 316 316 316 316 317 317 318 317 317 316 315 315 315 315 315 316 316 316 316 315 315 314 313 313 312 312 312 312 312 313 315 316 317 318 319 320 321 322 322 323 323 323
315 315 317 318 318 318 318 317 317 317 317 317 317 317 317 317 317 316 316 315 315 315 315 315 315 315 315 315 315 314 314 315 316 316 317 317 317 317 317 317 317 317 316 316 315 314 313 311 311 311 311 312 314 315 316 318 320 321 321 322 322 322
315 316 317 318 318 318 317 317 317 317 316 316 316 316 317 317 317 317 316 315 315 314 314 314 314 313 313 313 313 314 314 315 316 317 316 316 316 316 316 316 317 317 317 317 316 316 315 313 311 310 310 310 311 312 313 316 318 319 320 321 321 322
315 317 318 319 318 318 317 317 316 316 315 315 316 316 316 317 317 317 317 317 316 315 314 314 313 313 312 312 313 314 314 315 315 315 315 315 315 314 315 315 316 316 317 317 317 317 317 316 314 313 311 310 310 310 311 313 315 318 320 321 321 321
317 319 319 319 318 318 317 317 316 315 314 315 315 315 315 316 316 317 317 316 317 317 317 316 315 314 313 312 312 313 313 314 314 315 314 314 314 314 314 314 315 315 316 317 317 317 317 317 317 316 314 312 310 310 310 311 313 315 318 319 320 320
317 320 319 318 318 317 317 317 316 315 314 314 314 315 315 315 316 316 317 316 316 317 317 318 317 317 315 314 313 312 312 312 312 312 313 313 313 313 313 313 314 314 315 316 317 317 317 317 317 316 315 312 310 310 310 311 312 314 316 317 318 319
317 319 319 318 317 317 317 317 316 315 314 314 314 315 316 316 316 316 316 316 316 316 316 317 317 318 318 317 316 315 314 313 312 312 312 312 312 312 313 314 314 316 316 317 317 317 317 316 316 316 315 313 311 309 309 310 311 313 315 315 316 317
318 319 318 317 317 317 317 316 315 314 314 314 315 315 316 316 316 316 316 316 316 316 316 316 316 316 317 317 317 317 317 316 316 315 315 315 315 315 315 316 316 317 317 317 317 317 317 317 316 315 315 315 313 310 309 309 309 311 312 312 313 313
318 318 317 317 317 317 317 316 314 314 313 314 315 315 316 316 316 316 315 315 315 316 316 316 316 316 316 316 316 316 316 316 316 316 316 316 316 316 316 316 316 316 316 316 316 316 316 316 316 316 316 315 314 311 309 308 309 309 309 310 309 309
317 317 317 317 317 317 316 314 313 313 313 313 313 314 314 314 314 314 314 314 314 314 315 315 315 315 315 315 315 315 315 315 315 315 315 315 315 315 315 315 315 315 315 315 315 315 315 315 315 315 315 315 314 312 309 308 309 309 309 309 309 308
317 317 317 317 316 315 314 312 312 312 312 312 312 311 311 311 311 312 312 312 312 312 313 313 313 313 313 314 314 314 314 314 314 314 313 314 314 313 314 314 314 314 314 314 314 314 314 314 314 314 315 315 314 311 309 308 309 309 309 309 309 309
317 317 316 316 316 314 312 311 310 310 311 311 311 310 309 309 309 309 310 310 310 310 311 311 311 312 312 312 312 312 313 313 313 313 313 313 313 313 313 313 314 314 314 314 314 313 313 313 313 313 313 314 314 313 310 309 308 309 309 309 309 309
316 316 316 316 315 313 311 309 309 309 309 308 309 309 308 308 308 308 308 308 309 309 309 310 310 310 311 311 311 311 311 311 312 312 312 312 312 312 312 313 313 313 313 314 314 314 314 314 313 312 312 312 314 314 312 310 309 309 309 309 309 309
315 316 315 315 314 311 309 307 306 306 306 305 305 306 306 306 307 307 307 307 307 308 308 308 308 309 309 309 310 310 310 311 311 311 311 311 312 312 312 312 312 313 313 313 313 313 314 314 313 313 312 311 312 313 313 312 311 310 309 310 309 310
314 314 312 311 309 307 306 305 305 304 304 303 303 303 303 304 304 305 305 306 306 306 306 306 306 306 307 307 307 308 308 309 309 309 310 310 310 311 311 312 312 312 312 313 313 313 313 313 313 313 312 311 311 311 312 312 312 312 311 310 310 310
310 309 307 305 304 304 304 303 303 303 303 302 302 302 301 301 301 302 303 303 303 304 304 304 304 304 304 304 304 305 305 305 306 306 306 307 307 308 309 310 310 311 312 312 312 312 312 312 312 312 311 311 311 311 311 311 312 312 312 312 312 311
305 304 303 302 302 302 302 302 302 301 301 301 301 301 300 300 300 300 300 300 301 301 302 302 302 302 302 303 303 303 303 302 303 303 303 303 303 304 305 306 307 308 309 310 311 312 312 312 312 312 311 311 311 311 311 311 311 312 312 312 313 313
302 302 302 301 301 300 300 300 299 299 299 299 299 299 299 299 299 298 299 299 299 299 300 300 301 301 301 301 302 302 302 302 302 302 302 302 302 302 302 303 303 304 305 306 308 309 310 311 312 312 312 311 311 311 311 311 311 311 311 311 312 312
300 300 300 299 299 298 298 298 298 298 298 298 298 298 298 298 298 298 298 298 299 299 299 299 299 300 300 300 301 301 301 302 302 302 302 302 302 303 303 303 303 303 303 303 305 306 307 309 311 311 312 311 311 311 311 311 311 311 310 310 311 311
299 298 298 298 298 297 297 298 298 297 298 298 298 298 298 298 298 298 298 299 299 299 299 299 299 299 299 299 300 300 301 301 301 301 301 302 302 302 303 303 303 303 303 303 303 303 304 306 308 309 310 311 311 311 311 310 310 310 310 310 311 311
298 298 297 297 297 298 298 298 298 299 299 299 299 299 300 300 300 300 300 300 300 300 300 300 299 299 299 299 299 300 300 300 300 300 301 301 301 301 302 302 303 303 303 303 303 303 303 304 305 307 308 309 310 310 310 310 310 309 309 310 310 310
298 298 297 297 297 298 298 298 299 299 299 300 300 300 300 301 301 301 301 301 301 300 300 300 300 300 300 300 300 300 300 300 300 300 300 300 300 301 301 302 302 303 303 303 304 303 303 303 304 305 307 308 309 309 309 310 310 309 308 309 310 310
297 297 296 296 296 296 296 297 297 297 298 298 298 298 298 299 299 300 300 300 300 300 300 300 300 300 300 300 300 300 300 300 300 300 300 300 300 300 301 301 301 302 303 303 303 303 303 303 303 304 305 307 308 308 309 309 309 309 308 308 309 309
296 296 295 295 295 295 295 295 295 295 296 296 296 296 296 297 297 297 298 298 298 298 298 298 299 299 299 299 300 300 300 300 300 300 300 300 300 300 300 301 301 301 302 303 303 303 303 303 303 303 305 306 307 308 309 309 309 309 309 309 309 309
295 295 295 295 294 294 294 294 294 294 294 294 294 295 295 295 295 295 296 296 296 296 296 296 296 297 297 298 298 298 299 299 299 299 300 300 300 300 300 300 300 301 302 303 303 303 303 303 303 304 304 306 307 308 308 309 309 309 309 309 308 308
295 295 294 294 294 293 293 293 293 293 293 293 293 293 294 294 294 294 294 294 294 295 295 295 295 295 295 296 296 297 297 298 298 298 299 299 299 300 300 300 300 301 301 302 302 303 303 303 303 304 305 306 306 307 308 308 308 308 308 308 308 308
293 293 293 293 293 293 293 293 293 293 293 293 293 293 293 293 293 294 294 294 294 294 294 295 295 295 295 295 295 296 296 297 297 297 297 298 299 299 299 300 300 300 301 301 302 302 303 303 303 304 304 305 306 306 307 307 307 308 308 307 307 307
292 292 292 292 293 293 293 293 293 293 293 293 293 293 293 293 293 293 293 294 294 294 294 294 295 295 295 295 295 295 296 296 297 297 297 297 297 298 298 299 299 300 300 301 301 301 302 303 303 303 304 305 305 306 306 307 307 308 307 307 306 306
292 292 292 292 292 293 293 293 293 293 293 293 293 293 293 293 293 293 293 293 294 294 294 294 294 294 294 295 295 295 295 295 296 297 297 297 297 297 297 298 298 298 299 300 300 301 301 301 302 303 304 304 304 305 306 307 307 307 307 306 306 306
292 292 292 292 292 292 292 292 292 292 292 292 292 293 293 293 293 293 293 293 293 294 294 294 294 294 294 295 295 295 295 295 295 296 297 297 297 297 297 297 297 297 298 298 299 300 300 301 301 302 303 304 304 304 305 306 306 307 307 306 306 306
292 292 292 292 292 292 292 292 292 292 292 292 292 293 293 293 293 293 293 293 293 294 294 294 294 295 295 295 295 295 295 295 295 295 296 297 297 297 298 298 298 297 297 297 297 298 299 300 301 302 303 303 304 304 304 305 306 306 306 306 306 306
291 291 291 292 292 292 292 292 292 292 292 292 292 292 292 293 293 293 293 294 294 294 294 294 295 295 294 294 295 295 295 295 295 295 295 295 296 296 297 297 297 297 296 296 296 296 297 299 300 301 302 303 303 304 303 304 305 305 306 306 306 306
291 291 291 292 292 292 292 292 292 292 292 292 292 292 292 292 293 293 293 293 293 293 294 294 294 294 294 294 294 294 294 295 295 295 295 295 295 296 296 296 297 296 296 295 295 295 296 297 299 301 302 303 303 303 303 303 304 304 305 306 306 306